Location: Hermaringen
(48.5952°N, 10.2585°E)
Time: 04:53:04
(UTC+00:00)

S-56A Canister/Altair - Pass Details

Date: 22 February 2026
Orbit: 633 x 2484 km, 38.9° (Epoch: 11 March)

Event Time Altitude Azimuth Distance (km) Brightness Sun altitude
Exits shadow 04:38:46 10° 229° (SW) 3,918 10.7 -16.5°
Maximum altitude 04:40:49 11° 217° (SW) 4,010 10.8 -16.2°
Drops below altitude 10° 04:43:36 10° 203° (SSW) 4,298 11.1 -15.7°
Sets 04:51:37 0° 175° (S) 5,758 12.1 -14.4°
